Regional Weather Roundup
Issued by NWS

Home | Current Version | Previous Version | Text Only | Print | Product List | Glossary On
Versions: 1 2 3 4 5 6 7 8 9 10 11 12 13 14 15 16 17 18 19 20 21 22 23 24 25 26 27 28 29 30 31 32 33 34 35 36 37 38 39 40 41 42 43 44 45 46 47 48 49 50
000
ASUS44 KFWD 231815
RWRTX
NORTH TEXAS HOURLY WEATHER ROUNDUP
NATIONAL WEATHER SERVICE FORT WORTH TX
100 PM CDT MON OCT 23 2017

NOTE: "FAIR" INDICATES FEW OR NO CLOUDS BELOW 12,000 FEET WITH NO
SIGNIFICANT WEATHER AND/OR OBSTRUCTIONS TO VISIBILITY.

TXZ118-119-231900-
DALLAS/FORT WORTH METROPLEX

CITY           SKY/WX    TMP DP  RH WIND       PRES   REMARKS
DFW AIRPORT    MOSUNNY   78  37  22 VRB6      30.10F
6HR MIN TEMP:  49; 6HR MAX TEMP:  78;

DALLAS LOVE    MOSUNNY   75  39  27 VRB7      30.12F
6HR MIN TEMP:  54; 6HR MAX TEMP:  75;

FTW MEACHAM    SUNNY     79  41  25 SW9       30.11F
6HR MIN TEMP:  52; 6HR MAX TEMP:  79;

DAL-EXECUTIVE  SUNNY     77  38  24 S7        30.11F
6HR MIN TEMP:  53; 6HR MAX TEMP:  77;

FTW-ALLIANCE   MOSUNNY   79  40  24 W14       30.10F
6HR MIN TEMP:  48; 6HR MAX TEMP:  79;

FTW-SPINKS     SUNNY     77  37  24 S8        30.13F
ARLINGTON      SUNNY     76  38  25 S9        30.11F
6HR MIN TEMP:  43; 6HR MAX TEMP:  76;

GRAND PRAIRIE  SUNNY     75  34  22 S12       30.13F
ADDISON        SUNNY     73  37  27 SW3       30.12F
MESQUITE       SUNNY     75  37  25 SW8       30.12F
LANCASTER      SUNNY     75  40  28 SW9       30.13F
6HR MIN TEMP:  46; 6HR MAX TEMP:  75;

$$

TXZ091>094-102>105-117-120-121-131>134-231900-
NORTH CENTRAL TEXAS

CITY           SKY/WX    TMP DP  RH WIND       PRES   REMARKS
SHRMAN/DENISON CLOUDY    75  42  30 SW9       30.11F
6HR MIN TEMP:  48; 6HR MAX TEMP:  75;

GAINESVILLE    CLOUDY    75  43  31 SW10      30.12F
6HR MIN TEMP:  46; 6HR MAX TEMP:  75;

BOWIE          SUNNY     74  45  35 W12G20    30.11F
6HR MIN TEMP:  43; 6HR MAX TEMP:  75;

BRIDGEPORT     SUNNY     74  44  34 W12       30.13F
6HR MIN TEMP:  42; 6HR MAX TEMP:  74;

DECATUR        SUNNY     76  43  31 SW9       30.09F
6HR MIN TEMP:  53; 6HR MAX TEMP:  76;

DENTON         SUNNY     78  41  26 SW14      30.09F
6HR MIN TEMP:  42; 6HR MAX TEMP:  78;

MCKINNEY       SUNNY     76  38  25 SW10      30.10F
6HR MIN TEMP:  44; 6HR MAX TEMP:  76;

BONHAM         CLOUDY   N/A N/A N/A SW12      30.10F
6HR MIN TEMP:  44; 6HR MAX TEMP:  60;

GREENVILLE     SUNNY     77  39  25 SW9       30.11F
ROCKWALL       SUNNY     74  44  34 SW9       30.12F
6HR MIN TEMP:  49; 6HR MAX TEMP:  74;

TERRELL        SUNNY     76  40  27 SW9       30.12F
6HR MIN TEMP:  46; 6HR MAX TEMP:  76;

WAXAHACHIE     SUNNY     76  40  26 SW9       30.14F
6HR MIN TEMP:  49; 6HR MAX TEMP:  76; 6HR PCP:  0.01;

CLEBURNE       LGT RAIN  75  41  29 SW10      30.14F
GRANBURY       SUNNY     79  42  26 S10       30.12F
6HR MIN TEMP:  43; 6HR MAX TEMP:  79;

$$

TXZ083>090-098>101-113>116-127>130-139>142-154-155-231900-
WESTERN NORTH TEXAS

CITY           SKY/WX    TMP DP  RH WIND       PRES   REMARKS
WICHITA FALLS  CLOUDY    73  46  38 NW14      30.12R
6HR MIN TEMP:  44; 6HR MAX TEMP:  73;

WF-KICKAPOO    CLOUDY    75  46  35 NW12      30.14R
6HR MIN TEMP:  50; 6HR MAX TEMP:  75;

VERNON         SUNNY     73  37  26 N14       30.13F
6HR MIN TEMP:  47; 6HR MAX TEMP:  73;

ABILENE        SUNNY     75  48  38 SW8       30.12F
6HR MIN TEMP:  52; 6HR MAX TEMP:  75;

ABILENE-DYESS  SUNNY     76  49  37 W8        30.11F
6HR MIN TEMP:  52; 6HR MAX TEMP:  77;

GRAHAM         SUNNY     77  47  35 SW8       30.10F
6HR MIN TEMP:  42; 6HR MAX TEMP:  77;

BRECKENRIDGE   SUNNY     78  45  30 SW9       30.12F HAZE
6HR MIN TEMP:  47; 6HR MAX TEMP:  78;

CISCO          SUNNY     77  46  33 SW12G17   30.13S
EASTLAND       SUNNY     76  48  37 SW8       30.12S
6HR MIN TEMP:  41; 6HR MAX TEMP:  76;

RANGER         SUNNY     75  47  36 SW12G17   30.13S
6HR MIN TEMP:  45; 6HR MAX TEMP:  75;

MINERAL WELLS  SUNNY     78  44  29 W12       30.11F
6HR MIN TEMP:  41; 6HR MAX TEMP:  78;

STEPHENVILLE   SUNNY     77  43  30 S9        30.15S
6HR MIN TEMP:  43; 6HR MAX TEMP:  77;

COMANCHE       SUNNY     77  49  36 SW8       30.12F
6HR MIN TEMP:  49; 6HR MAX TEMP:  77;

BROWNWOOD      SUNNY     79  45  29 SW7       30.12F
COLEMAN        SUNNY     79  44  28 W9        30.11F
6HR MIN TEMP:  47; 6HR MAX TEMP:  79;

$$

TXZ143>147-156>162-174-175-231900-
CENTRAL TEXAS

CITY           SKY/WX    TMP DP  RH WIND       PRES   REMARKS
WACO           SUNNY     76  43  30 VRB6      30.13F
6HR MIN TEMP:  46; 6HR MAX TEMP:  77;

WACO-TSTC      SUNNY     77  39  25 S5        30.13F
WACO-MCGREGOR  SUNNY     78  46  32 S7        30.13F
6HR MIN TEMP:  46; 6HR MAX TEMP:  78;

HILLSBORO      SUNNY     74  45  35 SW6       30.14S
MEXIA          SUNNY     74  41  30 CALM      30.13F
6HR MIN TEMP:  46; 6HR MAX TEMP:  74; 6HR PCP:  0.05;

HEARNE         SUNNY     74  46  37 S5        30.15F
6HR MIN TEMP:  44; 6HR MAX TEMP:  74;

CAMERON        SUNNY     75  46  34 S8        30.14F
6HR MIN TEMP:  48; 6HR MAX TEMP:  75;

TEMPLE         SUNNY     77  44  30 S9        30.13F
6HR MIN TEMP:  46; 6HR MAX TEMP:  77;

KILLEEN        SUNNY     77  43  29 S6        30.12F
6HR MIN TEMP:  55; 6HR MAX TEMP:  75;

KILLEEN-SKYLRK SUNNY     77  47  34 S7        30.13F
6HR MIN TEMP:  45; 6HR MAX TEMP:  77;

FORT HOOD      SUNNY     76  44  31 SW8       30.09F
6HR MIN TEMP:  48; 6HR MAX TEMP:  76;

GATESVILLE     SUNNY     77  43  29 SW8       30.14F
HAMILTON       SUNNY     78  46  31 SW9       30.14S
6HR MIN TEMP:  45; 6HR MAX TEMP:  78;

LAMPASAS       SUNNY     76  46  35 SW9       30.12F
6HR MIN TEMP:  45; 6HR MAX TEMP:  76;

$$

TXZ095>097-106>112-122>126-135>138-148>153-164>167-231900-
EAST TEXAS

CITY           SKY/WX    TMP DP  RH WIND       PRES   REMARKS
PARIS          SUNNY     72  45  37 SW13      30.10F
6HR MIN TEMP:  45; 6HR MAX TEMP:  74;

SULPHUR SPRNGS SUNNY     74  41  30 SW10G16   30.12F
6HR MIN TEMP:  48; 6HR MAX TEMP:  74;

MOUNT PLEASANT SUNNY     73  42  32 SW9       30.11F
6HR MIN TEMP:  42; 6HR MAX TEMP:  73;

GILMER         SUNNY     72  40  31 SW3       30.11F
6HR MIN TEMP:  44; 6HR MAX TEMP:  72;

MINEOLA        SUNNY     73  45  35 SW7       30.12F
TYLER          SUNNY     73  41  31 SW9       30.12F
6HR MIN TEMP:  46; 6HR MAX TEMP:  73;

LONGVIEW       SUNNY     75  40  28 NW7       30.11F
6HR MIN TEMP:  44; 6HR MAX TEMP:  75;

MARSHALL       SUNNY     73  38  28 SW5       30.13F
6HR MIN TEMP:  42; 6HR MAX TEMP:  73;

ATHENS         SUNNY     70  45  40 SW3       30.12F
PALESTINE      SUNNY     72  48  41 W5        30.15F
JACKSONVILLE   SUNNY     73  40  31 W6        30.14F
HENDERSON      SUNNY     75  40  28 SW5       30.13F
6HR MIN TEMP:  42; 6HR MAX TEMP:  75;

CENTER         CLEAR     77  40  26 NW5       30.12F
6HR MIN TEMP:  49; 6HR MAX TEMP:  77;

NACOGDOCHES    SUNNY     74  41  30 SW7       30.12F
6HR MIN TEMP:  42; 6HR MAX TEMP:  74;

LUFKIN         SUNNY     72  46  39 W5        30.13F
6HR MIN TEMP:  45; 6HR MAX TEMP:  74;

$$

SUPPLEMENTAL OBSERVATIONS (NWS FORT WORTH AREA)

CITY           SKY/WX    TMP DP  RH WIND       PRES   REMARKS
DENISON DAM      N/A     73  37  27 W13         N/A
CADDO GRASSLND   N/A     75  41  29 SW7G16      N/A
PAT MAYSE LAKE   N/A     72  45  37 S9          N/A
LBJ GRASSLAND    N/A     79  46  31 S7G16       N/A



USA.gov is the U.S. government's official web portal to all federal, state and local government web resources and services.